"Pseudo-MPEC" for P10HjmU

Created 2018 Apr 20 14:18:04 UT using Find_Orb

Click here for an explanation of pseudo-MPECs

 
 Astrometry: 
     P10HjmU  C2018 04 13o'AstrometryQ[KT`icSrJp^]O/IOBg']q!1pVp(C?0NT5):$FHPF51
     P10HjmU  C2018 04 13qhTGwWvtD#1oYBe5mHXf2aAGj5%j]/aVQ#(MTr14Aj0-#U8jAy1hF51
     P10HjmU  C2018 04 13CFG4^VO:aEqisKFk]42'DsaH(8IS#kQ#8?aHnU/:My3REXiYDqWXF51
     P10HjmU  C2018 04 13%2qJ@NoqR.6mV*#@xredacted;*s1\iLQhw.,/h`B_db4Z3@h#gxF51
     P10HjmU  C2018 04 15.26738 14 35 15.18 -17 57 46.5          21.7 GUNEOCPI52
     P10HjmU  C2018 04 15.27152 14 35 14.63 -17 57 49.2          21.0 GUNEOCPI52
     P10HjmU |C2018 04 15-jr,tkq1/;]:)ZIii7OeP:'tn8qn%JgeyX\0BQG\Z[_I$PyD'mKE807
     P10HjmU |C2018 04 15g@^]kQpB5AwL+?#RU^g;alk`6rS;rt50W'(/QJ'Al$mQwJ^SbKHJ807
     P10HjmU |C2018 04 15q90af#8llHJMP3%:FsmxJq\WZa%*Ysn@_fwwYDy]q)pP)dP*7w\b807
     P10HjmU  C2018 04 18or?OYyYlr'gWnd.Mba0ZjZdsx;W689Rasee1K6EJI7BQ$SyC;L+6H01
     P10HjmU  C2018 04 18?lJ*@yw87kDSVpi!@mm=xqpw:fIh9?[cIU?RXnwVGTLj/G]d[N4XH01
     P10HjmU  C2018 04 18B[BCtbX7e3Wh?i\=y]KLMZM177Fe%%-Z:*#il5Z1HkSg4i*4L/`TH01
     P10HjmU  C2018 04 18j3e[$eF]D-=_7tN]/bI1TyhF]Lm7OEr-1rkUYbnq7v._W29NEOCPH01
     P10HjmU  C2018 04 19.32905 14 26 52.68 -18 34 43.3          21.8 GUNEOCPI52
     P10HjmU  C2018 04 19.33237 14 26 52.23 -18 34 45.7          21.7 GUNEOCPI52
     P10HjmU  C2018 04 19.33568 14 26 51.82 -18 34 46.6          21.1 GUNEOCPI52
     P10HjmU  C2018 04 19.33900 14 26 51.44 -18 34 48.3          21.4 GUNEOCPI52

Station data:
(807) Cerro Tololo Observatory, La Serena  (S30.169136 W70.805900)  Chile.
   Observers M. Holman, J. Kavelaars, T. Grav, W. Fraser. Measurer M. Holman.
   4-m Blanco reflector + CCD.
(F51) Pan-STARRS 1, Haleakala  (N20.707235 W156.255910)  US/Hawaii.
   Observers N. Primak, A. Schultz, S. Watters, J. Thiel, T. Goggia. Measurer
   PS1 Science Consortium. 1.8-m Ritchey-Chrétien + CCD.
(H01) Magdalena Ridge Observatory, Socorro  (N33.985151 W107.189200)  US/New
   Mexico.  Observers W. H. Ryan, E. V. Ryan. Measurer W. H. Ryan. 2.4-m
   f/8.9 reflector + CCD.
(I52) Steward Observatory, Mt. Lemmon Station  (N32.442547 W110.788920)
   US/Arizona.

Orbital elements:  P10HjmU
   Perihelion 2017 Nov 19.411010 +/- 0.739 TT =  9:51:51 (JD 2458076.911010)
Epoch 2018 Apr 19.0 TT = JDT 2458227.5   Earth MOID: 0.3753   Ma: 0.0803
M  46.04403 +/- 0.24                (J2000 ecliptic)          AutoNEOCP
n   0.30575965 +/- 0.00246          Peri.   83.10886 +/- 0.24
a   2.18213994 +/- 0.0117           Node    29.83485 +/- 0.06
e   0.4780216 +/- 0.00286           Incl.   21.98398 +/- 0.27
P   3.22                   H 20.2   G  0.15   U  8.7  
q 1.13902979 +/- 0.000541    Q 3.22525008 +/- 0.0234
From 17 observations 2018 Apr. 13-19; mean residual 0".26
Residuals in arcseconds: 
180413 F51  .13-  .10-    180415 807  .52+  .75+    180418 H01  .01-  .08+    
180413 F51  .15+  .26+    180415 807  .46-  .13-    180419 I52  .01-  .12+    
180413 F51  .12+  .05-    180415 807  .06+  .25-    180419 I52  .39-  .59-    
180413 F51  .04-  .08-    180418 H01  .07+  .02+    180419 I52  .22-  .21+    
180415 I52  .06+  .05-    180418 H01  .10+  .04+    180419 I52  .40+  .20+    
180415 I52  .33-  .32-    180418 H01  .20+  .05-    

Ephemerides (geocentric):
Date (UTC) HH   RA              Dec         delta   r     elong  mag " sig PA
---- -- -- --  ------------   ------------  ------ ------ -----  --- ---- ---
2018 04 20 14  14 24 17.716   -18 45 03.77  .87468 1.8715 169.5 21.7  .51   1
2018 04 20 15  14 24 12.579   -18 45 24.18  .87486 1.8717 169.5 21.7  .52   1
2018 04 20 16  14 24 07.442   -18 45 44.56  .87503 1.8720 169.6 21.7  .53   1
2018 04 20 17  14 24 02.307   -18 46 04.92  .87521 1.8722 169.6 21.7  .54   2
2018 04 20 18  14 23 57.172   -18 46 25.24  .87539 1.8725 169.6 21.7  .56   2
2018 04 20 19  14 23 52.038   -18 46 45.54  .87556 1.8728 169.7 21.7  .57   2
2018 04 20 20  14 23 46.905   -18 47 05.80  .87574 1.8730 169.7 21.7  .58   2
2018 04 20 21  14 23 41.773   -18 47 26.04  .87592 1.8733 169.8 21.7  .60   2
2018 04 20 22  14 23 36.642   -18 47 46.25  .87610 1.8735 169.8 21.7  .61   2
2018 04 20 23  14 23 31.511   -18 48 06.43  .87628 1.8738 169.9 21.7  .62   2
2018 04 21 00  14 23 26.382   -18 48 26.58  .87646 1.8740 169.9 21.7  .64   3
2018 04 21 01  14 23 21.253   -18 48 46.70  .87664 1.8743 170.0 21.7  .65   3
2018 04 21 02  14 23 16.126   -18 49 06.79  .87682 1.8746 170.0 21.7  .67   3
2018 04 21 03  14 23 10.999   -18 49 26.85  .87700 1.8748 170.1 21.7  .68   3
2018 04 21 04  14 23 05.873   -18 49 46.88  .87718 1.8751 170.1 21.7  .70   3
2018 04 21 05  14 23 00.748   -18 50 06.89  .87736 1.8753 170.2 21.7  .71   3
2018 04 21 06  14 22 55.624   -18 50 26.86  .87754 1.8756 170.2 21.7  .72   4
2018 04 21 07  14 22 50.501   -18 50 46.81  .87773 1.8759 170.3 21.7  .74   4
2018 04 21 08  14 22 45.379   -18 51 06.72  .87791 1.8761 170.3 21.7  .75   4
2018 04 21 09  14 22 40.259   -18 51 26.61  .87809 1.8764 170.4 21.7  .77   4
2018 04 21 10  14 22 35.139   -18 51 46.47  .87828 1.8766 170.4 21.7  .78   4
2018 04 21 11  14 22 30.020   -18 52 06.30  .87846 1.8769 170.4 21.7  .80   4
2018 04 21 12  14 22 24.902   -18 52 26.10  .87865 1.8771 170.5 21.7  .82   5
2018 04 21 13  14 22 19.785   -18 52 45.87  .87883 1.8774 170.5 21.7  .83   5
2018 04 21 14  14 22 14.670   -18 53 05.61  .87902 1.8777 170.6 21.7  .85   5
2018 04 21 15  14 22 09.555   -18 53 25.32  .87921 1.8779 170.6 21.7  .86   5
2018 04 21 16  14 22 04.442   -18 53 45.00  .87939 1.8782 170.7 21.7  .88   5
2018 04 21 17  14 21 59.330   -18 54 04.66  .87958 1.8784 170.7 21.7  .89   5
2018 04 21 18  14 21 54.218   -18 54 24.28  .87977 1.8787 170.8 21.7  .91   5
2018 04 21 19  14 21 49.108   -18 54 43.88  .87996 1.8789 170.8 21.7  .93   6
2018 04 21 20  14 21 43.999   -18 55 03.45  .88015 1.8792 170.9 21.7  .94   6
2018 04 21 21  14 21 38.892   -18 55 22.99  .88034 1.8795 170.9 21.7  .96   6
2018 04 21 22  14 21 33.785   -18 55 42.50  .88053 1.8797 170.9 21.7  .98   6
2018 04 21 23  14 21 28.680   -18 56 01.98  .88072 1.8800 171.0 21.7  1.0   6
2018 04 22 00  14 21 23.575   -18 56 21.43  .88091 1.8802 171.0 21.7  1.0   6
2018 04 22 01  14 21 18.472   -18 56 40.85  .88110 1.8805 171.1 21.7  1.0   7
2018 04 22 02  14 21 13.371   -18 57 00.24  .88129 1.8808 171.1 21.7  1.0   7
2018 04 22 03  14 21 08.270   -18 57 19.61  .88148 1.8810 171.2 21.7  1.1   7
2018 04 22 04  14 21 03.171   -18 57 38.94  .88168 1.8813 171.2 21.7  1.1   7
2018 04 22 05  14 20 58.073   -18 57 58.25  .88187 1.8815 171.2 21.7  1.1   7
2018 04 22 06  14 20 52.976   -18 58 17.53  .88206 1.8818 171.3 21.7  1.1   7
2018 04 22 07  14 20 47.881   -18 58 36.78  .88226 1.8820 171.3 21.7  1.1   8
2018 04 22 08  14 20 42.787   -18 58 56.00  .88245 1.8823 171.4 21.7  1.2   8
2018 04 22 09  14 20 37.694   -18 59 15.19  .88265 1.8826 171.4 21.7  1.2   8
2018 04 22 10  14 20 32.602   -18 59 34.35  .88284 1.8828 171.5 21.7  1.2   8
2018 04 22 11  14 20 27.512   -18 59 53.48  .88304 1.8831 171.5 21.7  1.2   8
2018 04 22 12  14 20 22.423   -19 00 12.59  .88324 1.8833 171.5 21.7  1.2   8
2018 04 22 13  14 20 17.336   -19 00 31.66  .88343 1.8836 171.6 21.7  1.2   8